[[{"header":{"parameterUnit":"m.s-1","parameterCategory":1,"la1":30.2991,"la2":30.254,"lo1":-89.0895,"lo2":-89.0444,"dy":0.0017,"dx":0.0017,"nx":28,"ny":28,"refTime":"2025-08-31T21:00:00:Z","depth":0,"parameterNumber":2,"parameterNumberName":"U-component_of_WINDS"},"data":[0,0,0,0,0,0,0,0,0,0,0,0,0,0,0,0,0,0,0,0,0,0,0,0,0,0,0,0,0,0,0,0,0,0,0,0,0,0,0,0,0,0,0,0,0,0,0,0,0,0,0,0,0,0,0,0,0,0,-4.5368,-4.5369,0,-4.5446,-4.5446,-4.5447,-4.5367,-4.5364,-4.5361,-4.5358,-4.5434,-4.5439,-4.5444,0,0,0,0,0,0,0,0,0,0,0,0,0,-4.5146,-4.515,-4.5368,-4.5369,-4.537,-4.5445,-4.5446,-4.5448,-4.5368,-4.5364,-4.536,-4.5357,-4.5433,-4.5439,-4.5445,0,0,0,0,0,0,0,0,0,0,0,0,0,-4.5235,-4.5152,-4.5367,-4.5339,-4.5337,-4.5445,-4.5447,-4.5448,-4.5369,-4.5364,-4.5359,-4.5355,-4.5431,-4.5438,-4.5445,-4.5584,0,0,-4.5468,-4.5471,0,0,0,0,0,0,0,0,-4.523,-4.5243,-4.5342,-4.5341,-4.5339,-4.5392,-4.5396,-4.5493,-4.537,-4.5357,-4.5358,-4.5353,-4.5424,-4.5431,-4.5456,-4.5588,-4.5591,-4.5469,-4.5473,-4.5476,-4.5478,0,0,0,0,0,0,0,-4.5224,-4.5239,-4.5398,-4.5344,-4.5342,-4.5321,-4.5329,-4.5414,-4.5415,-4.5357,-4.5352,-4.5362,-4.5422,-4.5449,-4.5457,-4.5592,-4.5468,-4.5475,-4.5479,-4.5482,-4.5839,-4.5844,0,0,0,0,0,0,-4.5221,-4.5235,-4.5396,-4.5401,-4.5272,-4.5329,-4.5337,-4.538,-4.5414,-4.5415,-4.5366,-4.5358,-4.5439,-4.5449,-4.546,-4.5623,-4.5476,-4.5483,-4.5487,-4.5834,-4.584,-4.5846,0,0,0,0,0,0,-4.5217,-4.5236,-4.5393,-4.5316,-4.5334,-4.5338,-4.5386,-4.5384,-4.5411,-4.5421,-4.542,-4.5394,-4.5436,-4.5449,-4.5554,-4.5624,-4.5486,-4.5493,-4.5828,-4.5836,-4.5843,-4.5951,0,0,0,0,0,0,-4.5211,-4.5235,-4.5289,-4.5318,-4.5339,-4.5487,-4.5391,-4.5389,-4.5424,-4.5415,-4.5447,-4.5448,-4.5433,-4.5543,-4.5561,-4.5632,-4.5499,-4.5822,-4.5832,-4.5841,-4.5941,-4.5961,-4.5979,0,0,0,0,0,-4.5203,-4.5316,-4.5292,-4.5312,-4.5406,-4.5491,-4.5503,-4.5485,-4.543,-4.5483,-4.549,-4.5447,-4.5614,-4.5554,-4.5574,-4.5648,-4.5817,-4.5829,-4.584,-4.5933,-4.5957,-4.5978,0,0,0,0,0,0,-4.5294,-4.5319,-4.5293,-4.5419,-4.5454,-4.5477,-4.5544,-4.5512,-4.5561,-4.555,-4.5525,-4.5533,-4.5643,-4.5656,-4.5589,-4.5783,-4.5707,-4.5723,-4.577,-4.5794,-4.5813,-4.5806,-4.5505,0,0,0,0,0,-4.5329,-4.5397,-4.5415,-4.5524,-4.5543,-4.5541,-4.5577,-4.556,-4.5594,-4.5608,-4.5622,-4.5656,-4.5716,-4.5756,-4.5812,-4.5943,-4.5948,-4.6004,-4.6023,-4.6038,-4.6052,-4.612,-4.6145,-4.5883,-4.5883,-4.5883,0,0,-4.5401,-4.5423,-4.5467,-4.5543,-4.5567,-4.5637,-4.5553,-4.563,-4.5681,-4.5619,-4.5718,-4.573,-4.5766,-4.5884,-4.5937,-4.5899,-4.6125,-4.6053,-4.6065,-4.607,-4.6134,-4.6159,-4.6181,-4.5891,-4.5889,-4.5888,0,0,-4.5567,-4.5593,-4.5685,-4.5712,-4.5751,-4.5749,-4.5771,-4.58,-4.5806,-4.5905,-4.586,-4.592,-4.6024,-4.6051,-4.6079,-4.6256,-4.6217,-4.6275,-4.6372,-4.644,-4.646,-4.6478,-4.6539,-4.6562,-4.6289,-4.6289,-4.6289,0,-4.5652,-4.5756,-4.5737,-4.5817,-4.585,-4.58,-4.5892,-4.5919,-4.5974,-4.5997,-4.5954,-4.6084,-4.6105,-4.6228,-4.6271,-4.6296,-4.6319,-4.627,-4.6459,-4.6477,-4.6493,-4.6551,-4.6575,-4.6296,-4.6295,-4.6294,-4.6294,0,-4.5856,-4.5929,-4.5999,-4.6054,-4.6096,-4.6182,-4.6175,-4.6219,-4.6199,-4.6201,-4.6302,-4.6326,-4.6385,-4.6413,-4.6394,-4.6533,-4.6508,-4.6463,-4.6385,-4.6525,-4.6579,-4.6601,-4.6305,-4.6303,-4.6301,-4.6299,0,0,-4.6081,-4.6125,-4.6151,-4.6174,-4.6214,-4.6269,-4.6353,-4.6411,-4.6449,-4.6489,-4.6557,-4.6647,-4.6605,-4.6636,-4.662,-4.6679,-4.6816,-4.6626,-4.6627,-4.6659,-4.6968,-4.7001,-4.7027,-4.6792,-4.6796,-4.6799,-4.6964,0,-4.6247,-4.6392,-4.6377,-4.6515,-4.6581,-4.6534,-4.6606,-4.6637,-4.6642,-4.6697,-4.6701,-4.6765,-4.6706,-4.6724,-4.6781,-4.6787,-4.6877,-4.6775,-4.6852,-4.6855,-4.6843,-4.7055,-4.709,-4.7245,-4.6986,-4.6989,-4.6992,0,-4.6459,-4.6507,-4.6652,-4.6681,-4.6708,-4.6773,-4.6825,-4.688,-4.6914,-4.6913,-4.6948,-4.6922,-4.7004,-4.6926,-4.7038,-4.6969,-4.7,-4.7008,-4.7013,-4.7018,-4.6931,-4.7063,-4.7294,-4.7316,-4.7025,-4.7023,-4.702,0,-4.6606,-4.6707,-4.6806,-4.6828,-4.6865,-4.6911,-4.6928,-4.6958,-4.6994,-4.704,-4.7063,-4.7117,-4.7147,-4.7189,-4.7177,-4.7122,-4.7291,-4.7213,-4.7291,-4.7291,-4.7327,-4.7324,-4.7563,-4.7351,-4.7351,-4.735,-4.735,0,-4.6791,-4.6881,-4.6872,-4.6933,-4.7031,-4.7013,-4.7111,-4.7122,-4.7149,-4.721,-4.7173,-4.7231,-4.7213,-4.727,-4.7261,-4.7354,-4.7368,-4.7369,-4.7365,-4.7371,-4.737,-4.7389,-4.7377,-4.7356,-4.7355,-4.7354,-4.7353,0,-4.697,-4.6968,-4.7073,-4.7099,-4.7108,-4.7179,-4.7201,-4.7257,-4.7259,-4.7337,-4.7354,-4.7356,-4.7421,-4.7415,-4.7487,-4.7481,-4.7596,-4.7581,-4.7585,-4.758,-4.7658,-4.765,-4.7915,-4.7948,-4.7717,-4.7719,-4.7721,0,-4.7088,-4.7156,-4.7189,-4.7228,-4.7249,-4.7312,-4.7348,-4.7333,-4.7373,-4.7417,-4.7468,-4.7529,-4.7577,-4.7683,-4.7691,-4.7746,-4.773,-4.7819,-4.7737,-4.7741,-4.7728,-4.7724,-4.773,-4.7834,-4.7837,-4.7839,-4.7841,0,-4.7295,-4.7291,-4.7346,-4.7401,-4.7446,-4.7488,-4.7526,-4.756,-4.7548,-4.7595,-4.7661,-4.7699,-4.7773,-4.7834,-4.7886,-4.7902,-4.7869,-4.7867,-4.7887,-4.7893,-4.7892,-4.7891,-4.7626,-4.786,-4.7858,-4.7857,-4.7856,-4.7855,-4.7446,-4.7503,-4.7536,-4.7598,-4.7626,-4.7662,-4.7716,-4.7725,-4.778,-4.784,-4.7828,-4.7902,-4.7933,-4.8,-4.8022,-4.8079,-4.8046,-4.8077,-4.8084,-4.8091,-4.8099,-4.7885,-4.8088,-4.8088,-4.8087,-4.8087,-4.8087,0,-4.765,-4.7668,-4.7726,-4.7781,-4.783,-4.7796,-4.7837,-4.7879,-4.7945,-4.7978,-4.8026,-4.8102,-4.8161,-4.8174,-4.823,-4.8273,-4.8259,-4.8288,-4.8284,-4.8287,-4.8126,-4.8102,-4.8298,-4.8298,-4.8298,-4.8298,-4.8298,-4.8298,-4.7761,-4.7857,-4.7856,-4.7964,-4.7982,-4.8055,-4.8081,-4.8114,-4.814,-4.8226,-4.8275,-4.8283,-4.8308,-4.8365,-4.8418,-4.842,-4.8441,-4.8476,-4.8472,-4.832,-4.8299,-4.8279,-4.8256,-4.8481,-4.8481,-4.8628,-4.8629,-4.8631]},{"header":{"parameterUnit":"m.s-1","parameterCategory":1,"la1":30.2991,"la2":30.254,"lo1":-89.0895,"lo2":-89.0444,"dy":0.0017,"dx":0.0017,"nx":28,"ny":28,"refTime":"2025-08-31T21:00:00:Z","depth":0,"parameterNumber":3,"parameterNumberName":"V-component_of_WINDS"},"data":[0,0,0,0,0,0,0,0,0,0,0,0,0,0,0,0,0,0,0,0,0,0,0,0,0,0,0,0,0,0,0,0,0,0,0,0,0,0,0,0,0,0,0,0,0,0,0,0,0,0,0,0,0,0,0,0,0,0,0.9748,0.9747,0,0.9682,0.9682,0.9681,0.9652,0.9652,0.9652,0.9653,0.9579,0.9577,0.9575,0,0,0,0,0,0,0,0,0,0,0,0,0,0.9843,0.9842,0.9748,0.9747,0.9746,0.9682,0.9682,0.9681,0.9652,0.9652,0.9652,0.9653,0.958,0.9577,0.9575,0,0,0,0,0,0,0,0,0,0,0,0,0,0.9792,0.9841,0.9748,0.9725,0.9722,0.9683,0.9682,0.968,0.9652,0.9652,0.9653,0.9653,0.9581,0.9578,0.9575,0.9552,0,0,0.9565,0.9564,0,0,0,0,0,0,0,0,0.9795,0.9788,0.9729,0.9726,0.9723,0.9676,0.9688,0.9637,0.9652,0.9678,0.9653,0.9653,0.9611,0.9605,0.9592,0.9548,0.9545,0.9565,0.9563,0.9562,0.9561,0,0,0,0,0,0,0,0.9799,0.9791,0.9722,0.9728,0.9724,0.9716,0.9708,0.9678,0.9644,0.9676,0.9674,0.9667,0.9609,0.9595,0.959,0.9544,0.9565,0.9562,0.956,0.9559,0.9479,0.9479,0,0,0,0,0,0,0.9807,0.9794,0.9724,0.972,0.976,0.9714,0.9706,0.9691,0.9644,0.9638,0.9667,0.9666,0.9601,0.9594,0.9588,0.9559,0.9562,0.9559,0.9557,0.948,0.9479,0.9479,0,0,0,0,0,0,0.9809,0.9801,0.9726,0.9756,0.9746,0.9712,0.9695,0.9689,0.9676,0.9638,0.9631,0.9659,0.96,0.9592,0.9562,0.9556,0.9557,0.9554,0.948,0.948,0.9479,0.95,0,0,0,0,0,0,0.9812,0.9802,0.9794,0.9757,0.9745,0.9703,0.9695,0.9688,0.9671,0.9669,0.9629,0.9622,0.96,0.9566,0.9559,0.9551,0.9552,0.948,0.948,0.9479,0.95,0.9501,0.9501,0,0,0,0,0,0.9815,0.9801,0.9794,0.9785,0.9735,0.9703,0.9696,0.9673,0.9671,0.9662,0.9638,0.9623,0.9558,0.9564,0.9554,0.9546,0.9481,0.948,0.9479,0.95,0.9501,0.9501,0,0,0,0,0,0,0.9835,0.9795,0.9787,0.976,0.9736,0.9698,0.9686,0.9674,0.9647,0.9646,0.9617,0.9608,0.958,0.956,0.9567,0.9522,0.9518,0.9516,0.9537,0.9537,0.9538,0.9543,0.9549,0,0,0,0,0,0.9837,0.9817,0.9782,0.9762,0.975,0.9721,0.9706,0.969,0.9662,0.9651,0.9624,0.9596,0.957,0.9552,0.9525,0.9497,0.9488,0.9487,0.9488,0.9489,0.9487,0.9471,0.947,0.9477,0.9477,0.9477,0,0,0.984,0.9815,0.9804,0.9765,0.9744,0.9722,0.9712,0.9688,0.9671,0.9647,0.9617,0.9597,0.9564,0.9535,0.9521,0.9517,0.9483,0.9488,0.9489,0.9486,0.947,0.947,0.9469,0.9477,0.9477,0.9477,0,0,0.9833,0.9813,0.9794,0.9774,0.9744,0.9725,0.972,0.9685,0.9672,0.9642,0.9624,0.9602,0.9556,0.9534,0.9516,0.9504,0.9489,0.9495,0.9498,0.9483,0.9483,0.9482,0.9478,0.9476,0.9494,0.9494,0.9494,0,0.9839,0.9807,0.9786,0.9764,0.9748,0.9728,0.9708,0.9689,0.965,0.9638,0.9636,0.9579,0.9555,0.9521,0.9519,0.9505,0.9498,0.9499,0.9485,0.9484,0.9483,0.9479,0.9477,0.9495,0.9494,0.9494,0.9494,0,0.9817,0.9795,0.9783,0.9749,0.9732,0.9711,0.9685,0.9669,0.9656,0.9637,0.9607,0.9578,0.9545,0.9536,0.9521,0.95,0.9499,0.9491,0.9486,0.9484,0.9479,0.9477,0.9496,0.9496,0.9495,0.9495,0,0,0.9819,0.9776,0.9772,0.9757,0.9722,0.9704,0.9682,0.9653,0.964,0.9614,0.9595,0.9558,0.9551,0.9532,0.9514,0.9501,0.9494,0.9495,0.9494,0.9496,0.9468,0.9474,0.9473,0.9485,0.9484,0.9484,0.9471,0,0.9808,0.9771,0.9751,0.9722,0.9701,0.9683,0.9664,0.964,0.9622,0.96,0.9579,0.9554,0.9547,0.9535,0.9521,0.9498,0.9488,0.9498,0.9465,0.9464,0.9474,0.947,0.9476,0.9465,0.9469,0.9469,0.9469,0,0.9789,0.9767,0.9736,0.9706,0.9696,0.968,0.9652,0.9632,0.9605,0.9592,0.9572,0.9555,0.9531,0.9529,0.9494,0.9502,0.9487,0.9474,0.9472,0.9468,0.9466,0.9465,0.9461,0.946,0.9465,0.9465,0.9466,0,0.9794,0.9756,0.9733,0.9721,0.9684,0.9673,0.9657,0.9631,0.9615,0.959,0.9579,0.9551,0.9535,0.9513,0.9489,0.949,0.9457,0.9452,0.9445,0.9446,0.9438,0.9438,0.9431,0.9429,0.9429,0.9429,0.943,0,0.9783,0.9765,0.9735,0.9721,0.97,0.9677,0.9657,0.9639,0.9616,0.9596,0.9578,0.956,0.953,0.9508,0.9489,0.9464,0.9456,0.9445,0.944,0.9446,0.9448,0.9435,0.9435,0.9429,0.9429,0.9429,0.9429,0,0.9784,0.9764,0.9738,0.9707,0.9699,0.9684,0.9657,0.9642,0.9624,0.96,0.9593,0.9564,0.9537,0.9512,0.9475,0.9463,0.9437,0.9431,0.9447,0.9444,0.9438,0.9439,0.9422,0.9419,0.942,0.942,0.942,0,0.9778,0.9764,0.9733,0.972,0.9706,0.9685,0.9669,0.9647,0.9631,0.96,0.9589,0.9562,0.9538,0.9497,0.9471,0.9443,0.9436,0.9432,0.9431,0.9439,0.9435,0.9437,0.9435,0.9432,0.9432,0.9432,0.9433,0,0.977,0.9761,0.9741,0.9717,0.97,0.968,0.9658,0.9648,0.9622,0.9605,0.9579,0.9562,0.9526,0.9499,0.9469,0.9451,0.9437,0.9434,0.943,0.9436,0.9446,0.9441,0.9448,0.9433,0.9433,0.9433,0.9433,0.9433,0.9767,0.9754,0.9731,0.9709,0.9691,0.9673,0.9657,0.9639,0.9618,0.9589,0.9576,0.955,0.9524,0.9482,0.9464,0.9443,0.9439,0.9434,0.9433,0.9432,0.9434,0.9451,0.9437,0.9437,0.9437,0.9437,0.9437,0,0.9757,0.9742,0.9723,0.9695,0.9678,0.967,0.9646,0.9632,0.961,0.9587,0.9566,0.9537,0.9511,0.9484,0.9457,0.9444,0.9437,0.9438,0.9438,0.9434,0.9438,0.9444,0.9444,0.9444,0.9444,0.9444,0.9444,0.9444,0.975,0.9729,0.9717,0.9687,0.9671,0.9647,0.9634,0.9617,0.9599,0.9568,0.9547,0.9531,0.9507,0.9478,0.9454,0.9446,0.9437,0.9439,0.943,0.9434,0.9433,0.9433,0.9438,0.9437,0.9437,0.9427,0.9427,0.9427]}]]